• In Colombia
  • List of Countries
  • For 7 days
  • Water Temperature
  • Weather Map
  • Weather Widgets
  • user-avatar
    Login

    Hourly Weather Djelfa

    Today, 15 December, Sunday

    Time Temperature Precipitation Wind Pressure Humidity
    00:00 +8°C° 0 mm 2 mps 665 mmHg 54%
    01:00 +8°C° 0 mm 2 mps 665 mmHg 55%
    02:00 +8°C° 0 mm 2 mps 665 mmHg 55%
    03:00 +8°C° 0 mm 2 mps 664 mmHg 56%
    04:00 +8°C° 0 mm 2 mps 664 mmHg 53%
    05:00 +8°C° 0 mm 2 mps 664 mmHg 51%
    06:00 +8°C° 0 mm 2 mps 664 mmHg 50%
    07:00 +9°C° 0 mm 2 mps 665 mmHg 48%
    08:00 +12°C° 0 mm 2 mps 665 mmHg 45%
    09:00 +13°C° 0 mm 2 mps 666 mmHg 43%
    10:00 +13°C° 0 mm 3 mps 666 mmHg 40%
    11:00 +14°C° 0 mm 3 mps 666 mmHg 37%
    12:00 +17°C° 0 mm 3 mps 667 mmHg 34%
    13:00 +17°C° 0 mm 4 mps 666 mmHg 36%
    14:00 +16°C° 0 mm 5 mps 666 mmHg 37%
    15:00 +15°C° 0 mm 5 mps 665 mmHg 39%
    16:00 +14°C° 0 mm 5 mps 665 mmHg 42%
    17:00 +13°C° 0 mm 5 mps 665 mmHg 45%
    18:00 +12°C° 0 mm 5 mps 665 mmHg 48%
    19:00 +11°C° 0 mm 6 mps 665 mmHg 48%
    20:00 +10°C° 0 mm 6 mps 665 mmHg 47%
    21:00 +10°C° 0 mm 6 mps 665 mmHg 47%
    22:00 +9°C° 0 mm 7 mps 665 mmHg 51%
    23:00 +9°C° 0 mm 7 mps 665 mmHg 54%

    Tomorrow, 16 December, Monday

    Time Temperature Precipitation Wind Pressure Humidity
    00:00 +8°C° 0 mm 7 mps 665 mmHg 58%
    01:00 +8°C° 0 mm 7 mps 664 mmHg 60%
    02:00 +8°C° 0 mm 7 mps 664 mmHg 62%
    03:00 +6°C° 0 mm 7 mps 663 mmHg 65%
    04:00 +6°C° 0 mm 7 mps 663 mmHg 67%
    05:00 +5°C° 0 mm 6 mps 663 mmHg 70%
    06:00 +5°C° 0 mm 6 mps 663 mmHg 72%
    07:00 +6°C° 0 mm 7 mps 663 mmHg 70%
    08:00 +6°C° 0 mm 7 mps 663 mmHg 68%
    09:00 +7°C° 0 mm 8 mps 664 mmHg 66%
    10:00 +8°C° 0 mm 9 mps 663 mmHg 62%
    11:00 +8°C° 0 mm 9 mps 663 mmHg 58%
    12:00 +9°C° 0 mm 10 mps 662 mmHg 54%
    13:00 +9°C° 0 mm 10 mps 662 mmHg 51%
    14:00 +11°C° 0 mm 11 mps 661 mmHg 48%
    15:00 +11°C° 0 mm 11 mps 661 mmHg 45%
    16:00 +9°C° 0 mm 11 mps 660 mmHg 47%
    17:00 +9°C° 0 mm 11 mps 660 mmHg 49%
    18:00 +8°C° 0 mm 12 mps 660 mmHg 51%
    19:00 +8°C° 0 mm 12 mps 660 mmHg 55%
    20:00 +7°C° 0 mm 13 mps 660 mmHg 59%
    21:00 +6°C° 0 mm 14 mps 660 mmHg 63%
    22:00 +7°C° 0 mm 13 mps 659 mmHg 64%
    23:00 +7°C° 0 mm 12 mps 659 mmHg 64%

    Day after tomorrow, 17 December, Tuesday

    Time Temperature Precipitation Wind Pressure Humidity
    00:00 +7°C° 0 mm 11 mps 659 mmHg 65%
    01:00 +6°C° 0 mm 11 mps 658 mmHg 66%
    02:00 +6°C° 0 mm 10 mps 657 mmHg 67%
    03:00 +6°C° 0 mm 10 mps 657 mmHg 68%
    04:00 +5°C° 0 mm 9 mps 656 mmHg 68%
    05:00 +5°C° 0 mm 9 mps 656 mmHg 69%
    06:00 +5°C° 0 mm 8 mps 655 mmHg 70%
    07:00 +6°C° 0 mm 9 mps 655 mmHg 65%
    08:00 +6°C° 0 mm 11 mps 655 mmHg 60%
    09:00 +7°C° 0 mm 12 mps 655 mmHg 55%
    10:00 +8°C° 0.1 mm 11 mps 655 mmHg 51%
    11:00 +8°C° 0.1 mm 11 mps 654 mmHg 47%
    12:00 +9°C° 0.1 mm 10 mps 654 mmHg 43%
    13:00 +7°C° 0.3 mm 10 mps 654 mmHg 51%
    14:00 +6°C° 0.3 mm 9 mps 654 mmHg 59%
    15:00 +5°C° 0.3 mm 9 mps 654 mmHg 67%
    16:00 +3°C° 0.1 mm 10 mps 654 mmHg 69%
    17:00 +3°C° 0.1 mm 10 mps 655 mmHg 71%
    18:00 +2°C° 0.1 mm 11 mps 656 mmHg 73%
    19:00 +1°C° 0 mm 11 mps 656 mmHg 66%
    20:00 0°C° 0 mm 12 mps 657 mmHg 60%
    21:00 -1°C° 0 mm 13 mps 657 mmHg 54%
    22:00 -1°C° 0 mm 13 mps 657 mmHg 62%
    23:00 -1°C° 0 mm 14 mps 658 mmHg 69%

    18 December, Wednesday

    Time Temperature Precipitation Wind Pressure Humidity
    00:00 -1°C° 0 mm 15 mps 658 mmHg 77%
    01:00 -2°C° 0 mm 14 mps 658 mmHg 77%
    02:00 -2°C° 0 mm 13 mps 658 mmHg 78%
    03:00 -2°C° 0 mm 13 mps 658 mmHg 78%
    04:00 -2°C° 0 mm 13 mps 659 mmHg 80%
    05:00 -2°C° 0 mm 13 mps 659 mmHg 81%
    06:00 -2°C° 0 mm 14 mps 659 mmHg 82%
    07:00 -2°C° 0 mm 14 mps 660 mmHg 79%
    08:00 -1°C° 0 mm 13 mps 660 mmHg 76%
    09:00 0°C° 0 mm 13 mps 661 mmHg 73%
    10:00 +1°C° 0 mm 13 mps 661 mmHg 67%
    11:00 +3°C° 0 mm 12 mps 662 mmHg 60%
    12:00 +4°C° 0 mm 12 mps 662 mmHg 53%
    13:00 +4°C° 0 mm 11 mps 662 mmHg 54%
    14:00 +4°C° 0 mm 11 mps 662 mmHg 54%
    15:00 +6°C° 0 mm 10 mps 662 mmHg 54%
    16:00 +5°C° 0 mm 10 mps 662 mmHg 61%
    17:00 +3°C° 0 mm 9 mps 663 mmHg 68%
    18:00 +2°C° 0 mm 9 mps 663 mmHg 75%
    19:00 +2°C° 0 mm 8 mps 664 mmHg 79%
    20:00 +2°C° 0 mm 8 mps 664 mmHg 82%
    21:00 +3°C° 0 mm 7 mps 665 mmHg 86%
    22:00 +3°C° 0 mm 6 mps 665 mmHg 87%
    23:00 +3°C° 0 mm 5 mps 665 mmHg 88%

    19 December, Thursday

    Time Temperature Precipitation Wind Pressure Humidity
    00:00 +4°C° 0 mm 4 mps 665 mmHg 89%
    01:00 +4°C° 0 mm 4 mps 665 mmHg 87%
    02:00 +4°C° 0 mm 3 mps 665 mmHg 85%
    03:00 +4°C° 0 mm 3 mps 665 mmHg 83%
    04:00 +4°C° 0 mm 3 mps 665 mmHg 80%
    05:00 +5°C° 0 mm 3 mps 665 mmHg 78%
    06:00 +5°C° 0 mm 3 mps 665 mmHg 76%
    07:00 +7°C° 0 mm 3 mps 666 mmHg 70%
    08:00 +8°C° 0 mm 3 mps 666 mmHg 65%
    09:00 +9°C° 0 mm 3 mps 667 mmHg 59%
    10:00 +11°C° 0 mm 4 mps 667 mmHg 54%
    11:00 +12°C° 0 mm 5 mps 667 mmHg 48%
    12:00 +14°C° 0 mm 6 mps 667 mmHg 43%
    13:00 +14°C° 0 mm 5 mps 667 mmHg 42%
    14:00 +14°C° 0 mm 5 mps 666 mmHg 41%
    15:00 +14°C° 0 mm 4 mps 666 mmHg 40%
    16:00 +12°C° 0 mm 3 mps 666 mmHg 44%
    17:00 +11°C° 0 mm 3 mps 666 mmHg 48%
    18:00 +9°C° 0 mm 2 mps 666 mmHg 52%
    19:00 +9°C° 0 mm 2 mps 666 mmHg 52%
    20:00 +9°C° 0 mm 2 mps 666 mmHg 53%
    21:00 +8°C° 0 mm 2 mps 666 mmHg 53%
    22:00 +8°C° 0 mm 2 mps 666 mmHg 53%
    23:00 +8°C° 0 mm 3 mps 665 mmHg 54%

    20 December, Friday

    Time Temperature Precipitation Wind Pressure Humidity
    00:00 +7°C° 0 mm 3 mps 665 mmHg 54%
    01:00 +7°C° 0 mm 3 mps 665 mmHg 53%
    02:00 +7°C° 0 mm 3 mps 665 mmHg 52%
    03:00 +7°C° 0 mm 3 mps 664 mmHg 52%
    04:00 +7°C° 0 mm 3 mps 664 mmHg 51%
    05:00 +6°C° 0 mm 4 mps 664 mmHg 50%
    06:00 +6°C° 0 mm 4 mps 664 mmHg 50%
    07:00 +8°C° 0 mm 4 mps 664 mmHg 46%
    08:00 +9°C° 0 mm 5 mps 665 mmHg 43%
    09:00 +10°C° 0 mm 5 mps 665 mmHg 39%
    10:00 +13°C° 0 mm 6 mps 665 mmHg 36%
    11:00 +14°C° 0 mm 7 mps 665 mmHg 32%
    12:00 +15°C° 0 mm 8 mps 665 mmHg 28%
    13:00 +15°C° 0 mm 8 mps 664 mmHg 31%
    14:00 +15°C° 0 mm 8 mps 664 mmHg 34%
    15:00 +13°C° 0 mm 8 mps 663 mmHg 37%
    16:00 +12°C° 0 mm 7 mps 663 mmHg 39%
    17:00 +11°C° 0 mm 6 mps 663 mmHg 42%
    18:00 +10°C° 0 mm 5 mps 663 mmHg 44%
    19:00 +10°C° 0 mm 7 mps 663 mmHg 47%
    20:00 +10°C° 0 mm 8 mps 663 mmHg 50%
    21:00 +11°C° 0 mm 9 mps 663 mmHg 53%
    22:00 +10°C° 0 mm 9 mps 663 mmHg 56%
    23:00 +10°C° 0 mm 9 mps 663 mmHg 60%
    Show more